Back to catalog

COSMOS 1275 DEB

AlivePO
NORAD 13804·DEBRIS·🇷🇺 Russia

Launched Jun 4, 1981 from Plesetsk Cosmodrome

Loading…

Next Passes (next 24 hours)

TLE

FreshSource: Space-Track

Epoch: Sep 14, 2026, 22:38 UTC

1 13804U 81053GY  26257.94308252  .00004095  00000-0  13618-2 0  9997
2 13804  82.9438 159.1102 0037258 103.9638  24.0864 14.37118371233699

Track COSMOS 1275 DEB in real time with AllMySat

Download on the App Store